Location: Newark
(49.8969°N, 3.3422°E)
Time: 05:35:53
(UTC+00:00)

Tiros 1 - Pass Details

Date: 20 January 2021
Orbit: 630 x 664 km, 48.4° (Epoch: 06 March)

Event Time Altitude Azimuth Distance (km) Brightness Sun altitude
Rises 19:33:44 0° 229° (SW) 2,915 11.1 -30.5°
Reaches altitude 10° 19:36:10 10° 222° (SW) 2,006 10.1 -30.8°
Enters shadow 19:37:22 17° 215° (SW) 1,587 9.4 -31.0°
